• In Netherlands
  • List of Countries
  • For 7 days
  • Water Temperature
  • Satellite Maps
  • Weather Map
  • Weather Widgets
  • user-avatar
    Login

    Hourly Weather Hasselt

    Today, 21 February, Wednesday

    Time Temperature Precipitation Wind Pressure Humidity
    00:00 -2°C° 0 mm 3 mps 763 mmHg 81%
    01:00 -2°C° 0 mm 2 mps 764 mmHg 81%
    02:00 -2°C° 0 mm 2 mps 764 mmHg 82%
    03:00 -2°C° 0 mm 2 mps 764 mmHg 83%
    04:00 -3°C° 0 mm 2 mps 764 mmHg 83%
    05:00 -3°C° 0 mm 2 mps 764 mmHg 83%
    06:00 -3°C° 0 mm 2 mps 764 mmHg 83%
    07:00 -2°C° 0 mm 3 mps 764 mmHg 78%
    08:00 -1°C° 0 mm 3 mps 765 mmHg 72%
    09:00 0°C° 0 mm 3 mps 765 mmHg 66%
    10:00 +1°C° 0 mm 3 mps 765 mmHg 62%
    11:00 +1°C° 0 mm 4 mps 764 mmHg 57%
    12:00 +4°C° 0 mm 4 mps 764 mmHg 52%
    13:00 +4°C° 0 mm 4 mps 764 mmHg 52%
    14:00 +4°C° 0 mm 4 mps 764 mmHg 52%
    15:00 +4°C° 0 mm 4 mps 763 mmHg 52%
    16:00 +1°C° 0 mm 4 mps 763 mmHg 58%
    17:00 +1°C° 0 mm 3 mps 763 mmHg 63%
    18:00 0°C° 0 mm 3 mps 763 mmHg 69%
    19:00 -1°C° 0 mm 3 mps 764 mmHg 71%
    20:00 -1°C° 0 mm 3 mps 764 mmHg 73%
    21:00 -2°C° 0 mm 3 mps 764 mmHg 75%
    22:00 -2°C° 0 mm 3 mps 764 mmHg 76%
    23:00 -2°C° 0 mm 3 mps 764 mmHg 77%

    Tomorrow, 22 February, Thursday

    Time Temperature Precipitation Wind Pressure Humidity
    00:00 -2°C° 0 mm 3 mps 764 mmHg 78%
    01:00 -2°C° 0 mm 3 mps 764 mmHg 78%
    02:00 -2°C° 0 mm 3 mps 764 mmHg 78%
    03:00 -2°C° 0 mm 3 mps 763 mmHg 78%
    04:00 -2°C° 0 mm 3 mps 763 mmHg 78%
    05:00 -4°C° 0 mm 3 mps 763 mmHg 77%
    06:00 -4°C° 0 mm 4 mps 763 mmHg 77%
    07:00 -3°C° 0 mm 4 mps 763 mmHg 70%
    08:00 -2°C° 0 mm 5 mps 764 mmHg 64%
    09:00 -1°C° 0 mm 5 mps 764 mmHg 57%
    10:00 0°C° 0 mm 5 mps 763 mmHg 51%
    11:00 +1°C° 0 mm 6 mps 763 mmHg 45%
    12:00 +2°C° 0 mm 6 mps 763 mmHg 39%
    13:00 +2°C° 0 mm 6 mps 763 mmHg 40%
    14:00 +2°C° 0 mm 6 mps 762 mmHg 40%
    15:00 +2°C° 0 mm 6 mps 762 mmHg 41%
    16:00 +1°C° 0 mm 5 mps 762 mmHg 47%
    17:00 0°C° 0 mm 5 mps 762 mmHg 52%
    18:00 -1°C° 0 mm 4 mps 763 mmHg 58%
    19:00 -2°C° 0 mm 4 mps 763 mmHg 61%
    20:00 -2°C° 0 mm 4 mps 763 mmHg 64%
    21:00 -3°C° 0 mm 4 mps 763 mmHg 67%
    22:00 -3°C° 0 mm 4 mps 763 mmHg 68%
    23:00 -3°C° 0 mm 4 mps 763 mmHg 70%

    Day after tomorrow, 23 February, Friday

    Time Temperature Precipitation Wind Pressure Humidity
    00:00 -3°C° 0 mm 4 mps 763 mmHg 72%
    01:00 -4°C° 0 mm 4 mps 763 mmHg 72%
    02:00 -4°C° 0 mm 4 mps 763 mmHg 72%
    03:00 -4°C° 0 mm 4 mps 763 mmHg 72%
    04:00 -4°C° 0 mm 4 mps 763 mmHg 71%
    05:00 -4°C° 0 mm 4 mps 763 mmHg 70%
    06:00 -4°C° 0 mm 4 mps 763 mmHg 69%
    07:00 -4°C° 0 mm 5 mps 763 mmHg 63%
    08:00 -4°C° 0 mm 5 mps 763 mmHg 56%
    09:00 -3°C° 0 mm 6 mps 763 mmHg 50%
    10:00 -2°C° 0 mm 6 mps 763 mmHg 45%
    11:00 -1°C° 0 mm 6 mps 762 mmHg 40%
    12:00 +1°C° 0 mm 6 mps 762 mmHg 35%
    13:00 +2°C° 0 mm 6 mps 762 mmHg 35%
    14:00 +2°C° 0 mm 6 mps 762 mmHg 34%
    15:00 +2°C° 0 mm 6 mps 761 mmHg 33%
    16:00 +1°C° 0 mm 6 mps 761 mmHg 36%
    17:00 -1°C° 0 mm 5 mps 762 mmHg 39%
    18:00 -2°C° 0 mm 5 mps 762 mmHg 42%
    19:00 -2°C° 0 mm 5 mps 762 mmHg 43%
    20:00 -4°C° 0 mm 5 mps 762 mmHg 44%
    21:00 -4°C° 0 mm 5 mps 762 mmHg 44%
    22:00 -4°C° 0 mm 5 mps 762 mmHg 45%
    23:00 -4°C° 0 mm 5 mps 762 mmHg 46%

    24 February, Saturday

    Time Temperature Precipitation Wind Pressure Humidity
    00:00 -4°C° 0 mm 5 mps 762 mmHg 47%
    01:00 -4°C° 0 mm 5 mps 762 mmHg 46%
    02:00 -4°C° 0 mm 5 mps 762 mmHg 46%
    03:00 -4°C° 0 mm 5 mps 762 mmHg 45%
    04:00 -4°C° 0 mm 5 mps 762 mmHg 44%
    05:00 -4°C° 0 mm 5 mps 762 mmHg 43%
    06:00 -4°C° 0 mm 5 mps 762 mmHg 42%
    07:00 -4°C° 0 mm 6 mps 762 mmHg 39%
    08:00 -3°C° 0 mm 6 mps 763 mmHg 35%
    09:00 -2°C° 0 mm 7 mps 763 mmHg 32%
    10:00 -1°C° 0 mm 7 mps 763 mmHg 31%
    11:00 0°C° 0 mm 7 mps 763 mmHg 30%
    12:00 +2°C° 0 mm 7 mps 763 mmHg 29%
    13:00 +3°C° 0 mm 7 mps 762 mmHg 30%
    14:00 +3°C° 0 mm 7 mps 762 mmHg 32%
    15:00 +3°C° 0 mm 7 mps 762 mmHg 34%
    16:00 +2°C° 0 mm 6 mps 762 mmHg 38%
    17:00 -1°C° 0 mm 6 mps 763 mmHg 43%
    18:00 -2°C° 0 mm 6 mps 763 mmHg 47%
    19:00 -2°C° 0 mm 6 mps 764 mmHg 49%
    20:00 -3°C° 0 mm 6 mps 764 mmHg 50%
    21:00 -3°C° 0 mm 6 mps 765 mmHg 52%
    22:00 -4°C° 0 mm 6 mps 765 mmHg 53%
    23:00 -4°C° 0 mm 5 mps 765 mmHg 55%

    25 February, Sunday

    Time Temperature Precipitation Wind Pressure Humidity
    00:00 -4°C° 0 mm 5 mps 766 mmHg 57%
    01:00 -5°C° 0 mm 5 mps 766 mmHg 57%
    02:00 -5°C° 0 mm 5 mps 766 mmHg 57%
    03:00 -5°C° 0 mm 5 mps 766 mmHg 57%
    04:00 -6°C° 0 mm 5 mps 766 mmHg 55%
    05:00 -6°C° 0 mm 6 mps 767 mmHg 53%
    06:00 -6°C° 0 mm 6 mps 767 mmHg 52%
    07:00 -5°C° 0 mm 6 mps 767 mmHg 48%
    08:00 -5°C° 0 mm 6 mps 768 mmHg 44%
    09:00 -4°C° 0 mm 7 mps 768 mmHg 40%
    10:00 -3°C° 0 mm 6 mps 768 mmHg 38%
    11:00 -2°C° 0 mm 6 mps 768 mmHg 36%
    12:00 -2°C° 0 mm 6 mps 768 mmHg 33%
    13:00 -2°C° 0 mm 6 mps 768 mmHg 33%
    14:00 -2°C° 0 mm 6 mps 768 mmHg 32%
    15:00 -2°C° 0 mm 6 mps 768 mmHg 31%
    16:00 -2°C° 0 mm 5 mps 768 mmHg 33%
    17:00 -4°C° 0 mm 5 mps 768 mmHg 34%
    18:00 -4°C° 0 mm 4 mps 768 mmHg 36%
    19:00 -5°C° 0 mm 4 mps 769 mmHg 36%
    20:00 -5°C° 0 mm 4 mps 769 mmHg 36%
    21:00 -5°C° 0 mm 4 mps 769 mmHg 36%
    22:00 -7°C° 0 mm 4 mps 769 mmHg 36%
    23:00 -7°C° 0 mm 4 mps 769 mmHg 36%

    26 February, Monday

    Time Temperature Precipitation Wind Pressure Humidity
    00:00 -6°C° 0 mm 3 mps 769 mmHg 37%
    01:00 -6°C° 0 mm 3 mps 769 mmHg 36%
    02:00 -6°C° 0 mm 3 mps 769 mmHg 36%
    03:00 -6°C° 0 mm 3 mps 769 mmHg 36%
    04:00 -7°C° 0 mm 3 mps 769 mmHg 37%
    05:00 -8°C° 0 mm 4 mps 769 mmHg 37%
    06:00 -8°C° 0 mm 4 mps 769 mmHg 38%
    07:00 -7°C° 0 mm 4 mps 769 mmHg 36%
    08:00 -7°C° 0 mm 5 mps 769 mmHg 34%
    09:00 -6°C° 0 mm 5 mps 769 mmHg 32%
    10:00 -6°C° 0 mm 5 mps 768 mmHg 30%
    11:00 -5°C° 0 mm 5 mps 768 mmHg 28%
    12:00 -4°C° 0 mm 5 mps 768 mmHg 26%
    13:00 -4°C° 0 mm 5 mps 767 mmHg 26%
    14:00 -4°C° 0 mm 5 mps 767 mmHg 26%
    15:00 -4°C° 0 mm 5 mps 766 mmHg 27%
    16:00 -4°C° 0 mm 5 mps 766 mmHg 31%
    17:00 -4°C° 0 mm 4 mps 766 mmHg 35%
    18:00 -5°C° 0 mm 4 mps 766 mmHg 39%
    19:00 -5°C° 0 mm 4 mps 766 mmHg 41%
    20:00 -6°C° 0 mm 3 mps 766 mmHg 44%
    21:00 -6°C° 0 mm 3 mps 766 mmHg 46%
    22:00 -6°C° 0 mm 3 mps 766 mmHg 48%
    23:00 -6°C° 0 mm 3 mps 766 mmHg 50%
    Show more